Date String (YYYY-MM-DD hh:mm:ss) UTC,Instrument flags,Ambient pressure (hPa),Sample flow (lpm),Bypass flow (lpm),Sample temperature (°C),Ambient temperature (°C),ASC tube jacket temperature (°C),LED temperature (°C),Box temperature (°C),Sample RH (%),Span deviation,Mass concentration (μg/m³),Mass concentration (μg/m³),Mass concentration (μg/m³)
DateTimeUTC,F1_M11,P_M11,Q1_M11,Q2_M11,T1_M11,T2_M11,T3_M11,T4_M11,T5_M11,U1_M11,ZSPAN_M11,X0_M11,X2_M11,X1_M11
2021-09-19 04:00:00,,0825.4,5.02,0.00,29.5,28.6,00.0,38.4,31.3,15.3,0002.2,0008.56,0004.41,0003.90
2021-09-19 04:01:00,,0825.4,4.99,0.00,29.5,28.7,00.0,38.4,31.4,15.1,0002.2,0008.44,0004.44,0003.91
2021-09-19 04:02:00,,0825.4,4.99,0.00,29.6,28.8,00.0,38.4,31.4,15.1,0001.4,0008.05,0004.47,0003.92
2021-09-19 04:03:00,,0825.3,5.01,0.00,29.6,28.6,00.0,38.5,31.4,15.1,0000.5,0008.07,0004.46,0003.93
2021-09-19 04:04:00,,0825.4,4.99,0.00,29.5,26.9,00.0,38.5,31.0,15.1,0000.1,0008.12,0004.48,0003.94
2021-09-19 04:05:00,,0825.4,5.00,0.00,29.4,26.4,00.0,38.5,30.8,15.2,-000.2,0008.51,0004.50,0003.95
2021-09-19 04:06:00,,0825.4,5.01,0.00,29.3,26.7,00.0,38.5,30.9,15.3,-000.3,0008.57,0004.50,0003.95
2021-09-19 04:07:00,,0825.4,5.00,0.00,29.3,27.1,00.0,38.4,30.9,15.3,0000.0,0008.49,0004.46,0003.94
2021-09-19 04:08:00,,0825.4,4.99,0.00,29.3,27.4,00.0,38.4,31.0,15.3,0000.0,0008.42,0004.43,0003.94
2021-09-19 04:09:00,,0825.4,5.01,0.00,29.3,27.7,00.0,38.4,31.1,15.2,0000.0,0008.46,0004.42,0003.94
2021-09-19 04:10:00,,0825.4,5.00,0.00,29.4,28.0,00.0,38.4,31.1,15.3,0000.0,0008.46,0004.44,0003.95
2021-09-19 04:11:00,,0825.4,5.01,0.00,29.4,28.2,00.0,38.4,31.2,15.2,0000.0,0009.31,0004.48,0003.96
2021-09-19 04:12:00,,0825.4,4.99,0.00,29.4,28.4,00.0,38.4,31.3,15.1,0000.0,0009.37,0004.49,0003.97
2021-09-19 04:13:00,,0825.4,4.99,0.00,29.5,28.5,00.0,38.4,31.3,15.2,0000.0,0009.27,0004.48,0003.98
2021-09-19 04:14:00,,0825.4,5.00,0.00,29.5,28.6,00.0,38.5,31.4,15.1,0000.0,0009.22,0004.48,0003.97
2021-09-19 04:15:00,,0825.4,5.01,0.00,29.6,28.7,00.0,38.5,31.4,15.1,0000.0,0009.23,0004.49,0003.97
2021-09-19 04:16:00,,0825.5,4.99,0.00,29.6,28.8,00.0,38.5,31.5,15.1,0001.3,0009.48,0004.49,0003.98
2021-09-19 04:17:00,,0825.4,5.00,0.00,29.6,27.3,00.0,38.5,31.1,15.1,0001.0,0009.40,0004.49,0003.99
2021-09-19 04:18:00,,0825.4,5.00,0.00,29.4,25.5,00.0,38.5,30.6,15.2,0000.0,0009.62,0004.51,0003.99
2021-09-19 04:19:00,,0825.4,5.00,0.00,29.3,25.4,00.0,38.5,30.5,15.4,0000.7,0010.08,0004.57,0004.00
2021-09-19 04:20:00,,0825.5,5.01,0.00,29.2,25.9,00.0,38.4,30.6,15.4,0001.0,0010.18,0004.59,0004.01
2021-09-19 04:21:00,,0825.4,5.00,0.00,29.1,26.4,00.0,38.4,30.7,15.4,0001.1,0010.02,0004.58,0004.01
2021-09-19 04:22:00,,0825.4,4.99,0.00,29.1,26.8,00.0,38.3,30.8,15.3,0001.6,0009.22,0004.54,0004.01
2021-09-19 04:23:00,,0825.5,5.01,0.00,29.2,27.2,00.0,38.3,30.9,15.3,0001.5,0009.29,0004.56,0004.01
2021-09-19 04:24:00,,0825.4,5.01,0.00,29.2,27.6,00.0,38.3,31.0,15.4,0001.5,0009.38,0004.56,0004.00
2021-09-19 04:25:00,,0825.5,4.99,0.00,29.2,27.8,00.0,38.3,31.0,15.4,0001.5,0009.54,0004.61,0004.01
2021-09-19 04:26:00,,0825.5,4.99,0.00,29.3,28.0,00.0,38.3,31.1,15.3,0002.2,0010.11,0004.62,0004.02
2021-09-19 04:27:00,,0825.5,5.02,0.00,29.3,28.2,00.0,38.3,31.1,15.5,0002.3,0009.50,0004.61,0004.01
2021-09-19 04:28:00,,0825.5,4.99,0.00,29.4,28.4,00.0,38.4,31.2,15.5,0002.0,0009.59,0004.64,0004.02
2021-09-19 04:29:00,,0825.5,4.99,0.00,29.4,28.5,00.0,38.4,31.3,15.5,0001.6,0009.52,0004.64,0004.03
2021-09-19 04:30:00,,0825.4,5.01,0.00,29.5,28.6,00.0,38.4,31.3,15.4,0001.7,0008.96,0004.60,0004.04
2021-09-19 04:31:00,,0825.5,5.01,0.00,29.5,28.7,00.0,38.4,31.4,15.3,0000.9,0008.63,0004.57,0004.03
2021-09-19 04:32:00,,0825.5,4.99,0.00,29.6,28.8,00.0,38.5,31.4,15.4,0000.4,0008.57,0004.58,0004.03
2021-09-19 04:33:00,,0825.5,5.00,0.00,29.6,28.9,00.0,38.5,31.5,15.3,-000.1,0008.82,0004.60,0004.05
2021-09-19 04:34:00,,0825.6,5.00,0.00,29.6,28.6,00.0,38.5,31.4,15.2,-000.2,0009.52,0004.62,0004.06
2021-09-19 04:35:00,,0825.5,5.01,0.00,29.5,26.8,00.0,38.5,30.9,15.3,-000.5,0009.50,0004.63,0004.08
2021-09-19 04:36:00,,0825.5,5.00,0.00,29.4,26.4,00.0,38.5,30.8,15.2,-000.4,0009.46,0004.63,0004.09
2021-09-19 04:37:00,,0825.5,5.00,0.00,29.4,26.7,00.0,38.5,30.9,15.3,-000.9,0008.89,0004.62,0004.11
2021-09-19 04:38:00,,0825.6,5.00,0.00,29.3,27.1,00.0,38.5,31.0,15.3,-000.9,0008.86,0004.63,0004.13
2021-09-19 04:39:00,,0825.6,5.00,0.00,29.3,27.5,00.0,38.4,31.0,15.4,-000.6,0008.78,0004.62,0004.15
2021-09-19 04:40:00,,0825.6,5.00,0.00,29.4,27.8,00.0,38.4,31.1,15.4,0000.1,0009.32,0004.66,0004.17
2021-09-19 04:41:00,,0825.7,5.01,0.00,29.4,28.0,00.0,38.4,31.2,15.4,0000.5,0009.37,0004.69,0004.19
2021-09-19 04:42:00,,0825.6,5.00,0.00,29.4,28.2,00.0,38.4,31.3,15.3,0000.9,0009.71,0004.77,0004.23
2021-09-19 04:43:00,,0825.6,5.01,0.00,29.5,28.4,00.0,38.5,31.3,15.1,0001.3,0010.63,0004.80,0004.25
2021-09-19 04:44:00,,0825.6,4.99,0.00,29.5,28.5,00.0,38.5,31.3,15.0,0001.6,0010.47,0004.81,0004.24
2021-09-19 04:45:00,,0825.5,4.99,0.00,29.6,28.7,00.0,38.5,31.4,15.2,0001.5,0009.87,0004.84,0004.25
2021-09-19 04:46:00,,0825.6,5.00,0.00,29.6,28.8,00.0,38.5,31.4,15.3,0001.9,0010.31,0004.85,0004.26
2021-09-19 04:47:00,,0825.6,5.01,0.00,29.7,28.8,00.0,38.6,31.5,15.4,0001.8,0010.58,0004.85,0004.27
2021-09-19 04:48:00,,0825.6,5.00,0.00,29.6,27.3,00.0,38.6,31.2,15.3,0001.9,0011.50,0004.90,0004.28
2021-09-19 04:49:00,,0825.6,5.00,0.00,29.5,26.4,00.0,38.6,30.9,15.4,0001.7,0011.66,0004.93,0004.29
2021-09-19 04:50:00,,0825.6,4.99,0.00,29.4,26.6,00.0,38.5,30.9,15.4,0001.8,0011.71,0004.94,0004.29
2021-09-19 04:51:00,,0825.6,5.00,0.00,29.4,27.0,00.0,38.5,31.0,15.5,0002.0,0011.17,0004.93,0004.29
2021-09-19 04:52:00,,0825.6,5.00,0.00,29.4,27.4,00.0,38.5,31.0,15.5,0001.9,0012.78,0004.93,0004.28
2021-09-19 04:53:00,,0825.6,5.01,0.00,29.4,27.7,00.0,38.5,31.1,15.7,0001.5,0012.93,0004.88,0004.28
2021-09-19 04:54:00,,0825.6,4.99,0.00,29.4,27.9,00.0,38.5,31.2,15.6,0000.0,0011.99,0004.88,0004.28
2021-09-19 04:55:00,,0825.6,5.00,0.00,29.4,28.2,00.0,38.5,31.2,15.6,0000.0,0012.08,0004.88,0004.31
2021-09-19 04:56:00,,0825.6,5.00,0.00,29.5,28.3,00.0,38.5,31.3,15.5,0000.0,0012.12,0004.89,0004.32
2021-09-19 04:57:00,,0825.6,5.00,0.00,29.5,28.5,00.0,38.5,31.4,15.5,0000.0,0011.89,0004.93,0004.34
2021-09-19 04:58:00,,0825.6,5.01,0.00,29.6,28.6,00.0,38.5,31.4,15.5,0000.0,0011.84,0004.99,0004.36
2021-09-19 04:59:00,,0825.6,4.99,0.00,29.6,28.7,00.0,38.6,31.4,15.5,0000.0,0011.41,0004.99,0004.36
